Location: Bacharowice
(49.9333°N, 19.5833°E)
Time: 23:42:52
(UTC+00:00)

Cosmos 1937 Rocket - Pass Details

Date: 11 May 2021
Orbit: 745 x 781 km, 74.0° (Epoch: 21 June)

Event Time Altitude Azimuth Distance (km) Brightness Sun altitude
Exits shadow 22:09:36 28° 233° (SW) 1,380 4.5 -21.7°
Maximum altitude 22:12:07 55° 299° (WNW) 902 4.0 -21.7°
Drops below altitude 10° 22:17:13 10° 17° (NNE) 2,292 6.9 -21.8°
Sets 22:19:40 0° 22° (NNE) 3,226 7.8 -21.8°
